Weather History for CWZG - December, 2012

Change the Weather History Date:

Saturday, December 22, 2012

  Actual Average Record
Temperature  
Mean Temperature 1 °F -  
Max Temperature 4 °F - - ()
Min Temperature -2 °F - - ()
Degree Days  
Heating Degree Days 64    
Moisture  
Dew Point -6 °F    
Average Humidity 77    
Maximum Humidity 82    
Minimum Humidity 69    
Precipitation  
Precipitation 0.10 in - - ()
Sea Level Pressure  
Sea Level Pressure 30.14 in    
Wind  
Wind Speed 4 mph ()    
Max Wind Speed 7 mph    
Max Gust Speed -    
T = Trace of Precipitation, MM = Missing Value Source: Averaged Metar Reports

Daily Weather History Graph

Daily Weather History Graph

Search for Another Location

Airport or City:

Trip Planner

Search our weather history database for the weather conditions in past years. The results will help you decide how hot, cold, wet, or windy it might be!

Date:

Astronomy

Dec. 22, 2012 Rise Set
Actual Time 8:44 AM MST 4:37 PM MST
Civil Twilight 8:04 AM MST 5:17 PM MST
Nautical Twilight 7:21 AM MST 6:00 PM MST
Astronomical Twilight 6:41 AM MST 6:40 PM MST
Moon 1:16 PM MST (12/22) 3:12 AM MST (12/22)
Length of Visible Light 9h 12m
Length of Day
7h 52m
Waxing Gibbous, 74% of the Moon is Illuminated
Dec 22
Waxing Gibbous
Dec 28
Full
Jan 4
Last Quarter
Jan 11
New
Jan 18
First Quarter

Hourly Weather History & Observations

Time (MST) Temp. Windchill Dew Point Humidity Pressure Visibility Wind Dir Wind Speed Gust Speed Precip Events Conditions
12:00 AM 4.6 °F -4.5 °F 0.1 °F 82% 30.14 in - NE 4.6 mph - 0.01 in   Unknown
1:00 AM 4.3 °F -2.9 °F -0.6 °F 80% 30.12 in - NNE 3.5 mph - N/A   Unknown
2:00 AM 3.2 °F -6.2 °F -1.7 °F 80% 30.14 in - NE 4.6 mph - N/A   Unknown
3:00 AM 1.8 °F -9.5 °F -3.1 °F 80% 30.18 in - ENE 5.8 mph - 0.01 in   Unknown
4:00 AM 0.5 °F -11.0 °F -4.5 °F 79% 30.20 in - ENE 5.8 mph - N/A   Unknown
5:00 AM -0.2 °F -10.1 °F -5.1 °F 80% 30.19 in - NE 4.6 mph - N/A   Unknown
6:00 AM -0.6 °F -10.6 °F -5.6 °F 79% 30.19 in - ENE 4.6 mph - N/A   Unknown
7:00 AM -0.8 °F -10.8 °F -5.8 °F 79% 30.18 in - NE 4.6 mph - 0.01 in   Unknown
8:00 AM -1.3 °F -11.4 °F -6.0 °F 81% 30.19 in - NE 4.6 mph - 0.05 in   Unknown
9:00 AM -1.3 °F -9.3 °F -6.2 °F 80% 30.18 in - NE 3.5 mph - 0.02 in   Unknown
10:00 AM -2.6 °F -10.8 °F -8.1 °F 77% 30.19 in - NE 3.5 mph - N/A   Unknown
11:00 AM -1.5 °F - -8.7 °F 71% 30.18 in - ENE 2.3 mph - N/A   Unknown
12:00 PM -0.6 °F -8.5 °F -8.0 °F 71% 30.15 in - East 3.5 mph - 0.01 in   Unknown
1:00 PM 0.9 °F -6.9 °F -7.1 °F 69% 30.12 in - East 3.5 mph - N/A   Unknown
2:00 PM 1.4 °F -9.9 °F -6.0 °F 71% 30.10 in - East 5.8 mph - N/A   Unknown
3:00 PM 0.7 °F -9.1 °F -6.5 °F 72% 30.10 in - East 4.6 mph - N/A   Unknown
5:00 PM -1.1 °F -12.9 °F -6.7 °F 77% 30.11 in - NE 5.8 mph - N/A   Unknown
6:00 PM -1.5 °F -11.6 °F -7.1 °F 77% 30.11 in - East 4.6 mph - N/A   Unknown
7:00 PM -1.7 °F -11.8 °F -7.1 °F 78% 30.09 in - ENE 4.6 mph - N/A   Unknown
8:00 PM -2.2 °F -15.6 °F -7.8 °F 77% 30.09 in - ENE 6.9 mph - N/A   Unknown
9:00 PM -1.8 °F -15.2 °F -7.6 °F 76% 30.09 in - ENE 6.9 mph - N/A   Unknown
10:00 PM -2.7 °F -13.1 °F -8.0 °F 78% 30.09 in - NNE 4.6 mph - N/A   Unknown
11:00 PM -2.7 °F -16.2 °F -8.9 °F 75% 30.09 in - ENE 6.9 mph - N/A   Unknown